Powrót do katalogu

BREEZE-M DEB

AktywnyHEO
NORAD 32042·DEBRIS·🇷🇺 Russia

Wystrzelony Feb 28, 2006 z Baikonur Cosmodrome

Loading…

Następne Przeloty (najbliższe 24 godziny)

TLE

ŚwieżeSource: Space-Track

Epoka: Sep 11, 2026, 16:04 UTC

1 32042U 06006V   26254.66958797  .00001157  00000-0  10451-2 0  9996
2 32042  51.6954   9.7259 5080900 137.3448 275.9688  5.33571344376542

Śledź BREEZE-M DEB w czasie rzeczywistym z AllMySat

Download on the App Store